Tracking 35331 objects as of 14-Sep-2026
HD Live streaming from Space Station
objects crossing your sky now

STARLINK-34562

Track STARLINK-34562 now!
10-day predictions
STARLINK-34562 is classified as:


NORAD ID: 64725
Int'l Code: 2025-144B
Launch date: July 2, 2025
Source: United States (US)
Launch site: AIR FORCE EASTERN TEST RANGE (AFETR)
Your satellite tracking list
Your tracking list is empty




NASA's NSSDC Master Catalog

Two Line Element Set (TLE):
1 64725U 25144B   26256.63214610  .00023641  00000-0  70768-3 0  9991
2 64725  53.1612  27.5816 0001506  78.6000 281.5172 15.34442095 68474
Source of the keplerian elements: AFSPC